Theta_e
309 308 308 309 308 308 308 309 311 318 319 321 322 323 322 317 310 310 316 320 321 324 323 322 323 326 325 328 332 331 334 336 335 338 338 336 339 338 341 341 346 345 346 344 342 346 349 339 339 340 347 340 338 337
309 309 309 309 309 308 308 308 310 317 318 320 321 322 321 315 310 310 317 322 321 322 321 320 320 321 322 323 325 329 333 335 338 341 342 344 340 337 342 344 341 345 342 344 343 348 345 338 339 338 335 336 336 337
310 310 309 308 308 309 308 308 309 316 318 319 320 321 320 313 310 311 316 319 321 323 323 323 324 323 321 319 320 328 332 327 329 332 341 344 348 342 341 344 341 342 341 344 343 343 343 341 337 336 339 342 339 337
310 310 310 308 308 309 307 308 309 315 317 319 319 321 317 311 310 310 314 318 319 322 325 324 324 323 322 321 318 319 323 323 324 330 336 337 339 335 334 334 338 335 336 338 340 341 342 341 341 340 338 337 334 333
311 310 309 308 308 309 308 308 309 315 317 318 318 319 314 310 310 310 313 316 318 321 325 325 321 323 322 320 320 320 320 320 324 330 332 333 329 330 330 332 335 333 337 336 346 346 346 343 340 337 337 336 335 334
310 310 309 308 308 308 307 307 309 314 317 317 317 317 311 310 310 314 320 318 319 319 322 325 322 323 324 323 323 322 321 322 324 326 329 329 327 329 335 338 338 334 332 333 344 342 342 342 341 339 338 337 336 335
310 309 308 308 308 308 307 307 309 314 316 316 315 310 310 310 313 317 321 319 319 319 322 324 326 322 323 325 325 323 322 324 324 324 325 325 326 329 334 335 335 334 334 333 332 340 341 339 339 337 335 335 337 335
309 309 308 308 308 307 306 307 309 314 316 314 310 310 310 310 313 316 317 316 318 321 322 324 326 329 325 328 327 324 326 326 326 325 325 327 327 327 332 332 332 331 332 334 333 332 332 335 336 337 336 334 333 332
309 308 307 308 308 306 309 310 312 314 312 310 310 310 310 311 315 318 318 316 319 322 325 325 327 336 329 327 329 327 329 332 328 327 325 327 328 333 333 329 330 331 335 334 334 333 335 336 335 335 333 333 332 331
307 307 308 307 306 309 311 312 313 312 310 310 310 314 316 315 319 316 317 321 319 319 322 323 324 326 328 330 333 333 332 331 333 331 328 329 327 325 327 329 335 336 334 337 340 340 339 338 337 337 336 334 334 336
307 308 307 306 307 311 314 313 311 310 310 312 316 319 317 317 317 320 324 323 323 322 322 322 323 325 327 331 334 333 336 337 335 333 332 337 334 332 330 328 332 337 338 338 337 337 337 338 337 336 335 336 335 337
307 307 306 308 312 313 313 311 310 311 312 314 318 317 318 320 323 323 324 324 324 325 325 325 325 323 326 329 334 334 335 337 340 337 340 336 346 348 344 341 342 341 340 340 339 339 339 340 340 339 337 337 337 343
309 309 310 313 314 313 311 310 310 314 316 317 318 319 320 320 321 324 326 326 327 324 325 325 326 325 326 329 332 333 333 334 336 339 340 344 345 345 344 344 343 342 341 341 341 341 343 344 341 341 340 339 348 342
310 312 312 312 312 311 310 310 312 316 315 319 320 315 322 322 322 323 324 325 324 324 324 327 329 331 328 332 329 332 332 333 338 339 336 343 343 344 342 340 340 341 340 341 343 345 347 346 338 338 340 349 344 342
311 312 312 311 310 310 311 313 314 314 316 322 322 318 322 322 323 323 323 325 326 329 325 327 327 328 329 328 329 331 333 335 336 337 342 342 344 343 341 339 338 340 341 344 346 347 346 348 344 349 349 344 343 341
310 310 310 309 310 310 310 312 313 312 316 322 323 323 323 322 323 325 324 323 325 327 325 325 327 326 327 330 330 332 332 334 338 339 338 338 339 342 341 339 338 339 343 343 344 344 344 347 349 349 344 340 337 336
308 310 309 310 310 311 311 311 312 315 319 322 324 322 322 324 328 328 326 327 328 328 328 328 329 330 328 332 333 333 336 338 337 336 335 335 337 338 340 340 337 339 343 343 343 343 343 343 345 346 344 339 333 330
309 309 309 309 310 310 310 311 314 317 320 321 322 323 323 324 324 326 325 327 327 328 328 329 328 332 334 333 335 333 333 333 331 334 333 335 337 336 338 337 338 339 343 342 340 341 342 341 341 341 345 341 331 328
310 309 309 309 310 310 312 312 314 320 319 320 320 322 322 325 325 326 326 327 328 328 329 330 331 333 333 332 332 332 333 333 332 329 332 335 335 336 337 337 337 340 341 340 338 338 339 335 331 333 330 331 341 335
310 310 310 310 312 314 316 317 315 319 320 325 322 325 324 324 322 324 325 324 327 328 329 331 328 329 329 331 330 332 332 330 333 333 333 334 332 334 336 336 336 336 338 339 337 335 336 337 337 331 331 331 335 341
310 310 310 311 313 315 319 322 320 320 320 322 325 325 326 325 327 328 328 326 330 331 328 328 328 328 330 329 329 331 332 332 333 332 331 330 331 329 329 333 335 336 337 336 337 336 336 334 333 336 337 335 333 336
311 310 311 311 315 317 319 319 322 323 323 324 326 328 329 330 329 328 324 331 330 328 329 327 327 327 327 330 333 330 329 330 330 331 329 328 329 328 332 334 335 336 334 333 333 334 334 333 333 334 333 333 334 333
311 312 315 315 317 317 315 319 322 323 325 325 325 326 324 325 323 322 325 325 327 323 324 325 326 328 329 327 326 328 328 329 331 330 330 328 328 329 332 333 332 334 332 331 329 329 330 329 329 330 331 331 329 328
314 315 317 320 319 318 320 324 324 325 324 322 322 323 322 322 321 323 323 323 322 323 324 323 325 329 330 330 330 331 329 330 330 330 329 330 333 332 333 331 328 328 328 328 329 328 329 330 327 328 329 330 325 325
316 314 315 315 320 322 324 324 323 322 322 321 321 321 322 320 322 323 323 324 323 324 324 324 323 324 326 327 329 328 327 328 330 330 332 331 332 331 329 328 327 328 325 325 329 331 328 329 328 326 326 325 324 323
315 320 318 324 324 324 324 323 322 321 321 322 322 322 320 323 324 325 325 323 324 324 324 324 325 324 325 325 325 325 325 327 328 328 327 331 331 330 327 326 326 327 329 326 327 329 327 327 330 330 326 322 322 323
320 323 321 321 321 322 323 322 322 323 324 326 326 326 325 325 323 323 321 320 321 321 322 324 325 325 324 324 325 324 324 325 325 325 325 326 326 326 325 324 324 325 325 326 325 322 324 327 329 328 326 326 327 328
322 322 325 323 324 323 326 326 327 328 327 326 325 323 321 322 321 321 321 318 317 321 324 325 325 325 324 324 325 326 326 325 324 324 324 324 324 324 324 324 323 322 325 327 327 329 328 327 329 331 328 328 328 328
324 323 324 326 326 326 326 326 326 326 325 324 323 323 323 322 322 321 319 319 316 319 323 324 324 325 324 325 323 322 322 322 324 326 327 326 327 326 324 323 324 323 324 327 329 328 322 321 320 321 322 324 325 325
324 323 325 326 327 327 328 322 321 320 318 318 319 320 319 319 317 316 316 319 320 320 322 324 323 323 324 324 324 319 315 314 313 313 324 325 324 316 318 323 324 324 324 325 325 324 324 324 324 324 324 325 323 324
325 325 326 326 328 326 328 327 321 320 320 320 320 318 318 318 317 317 316 316 316 317 317 316 316 316 318 318 318 316 315 313 312 310 309 310 310 312 313 312 312 313 315 318 324 324 325 325 324 324 324 325 325 325
327 326 327 327 327 326 325 326 328 329 329 329 325 319 319 319 319 317 316 316 317 316 316 316 317 316 316 315 316 316 314 313 311 310 309 309 310 311 310 310 310 311 311 313 315 319 323 322 322 322 321 322 322 322
329 326 326 326 326 326 326 327 326 326 328 326 324 321 320 319 320 318 316 315 315 315 315 314 314 314 313 312 312 313 313 312 311 311 311 311 311 311 310 310 310 311 311 312 313 314 313 314 314 313 313 313 313 314
Wind_Speed
21 19 18 18 18 17 18 18 19 17 17 17 15 13 10 7 4 6 8 3 2 3 10 8 11 8 8 5 4 10 8 6 3 2 2 4 3 4 3 2 7 4 1 2 2 2 2 2 1 4 3 4 6 8
21 20 18 18 17 17 17 16 17 17 17 17 16 14 10 6 4 4 5 5 3 3 6 24 22 21 15 8 4 5 5 6 3 4 4 4 3 3 2 3 4 1 2 3 3 3 1 3 3 6 9 5 4 8
21 20 18 17 17 17 16 15 16 15 16 18 17 14 11 8 6 5 5 9 13 4 8 10 9 19 21 18 14 2 1 6 6 5 2 3 3 3 1 2 5 3 5 3 4 2 4 3 2 6 7 7 11 14
21 20 19 17 16 16 15 15 16 14 15 17 18 16 12 10 8 5 3 6 8 5 3 3 7 3 4 8 17 16 11 11 7 4 2 2 3 3 3 2 3 4 3 3 2 9 7 4 5 7 4 6 11 9
21 19 17 16 16 16 15 14 16 14 14 17 18 17 13 11 8 4 5 6 4 3 4 6 20 21 10 8 8 10 9 5 3 3 2 3 3 4 4 3 3 4 2 1 2 3 2 3 5 6 5 9 10 9
18 17 16 15 16 16 15 14 16 14 14 17 19 16 15 11 8 2 3 3 5 1 3 4 7 6 2 4 4 6 4 3 3 2 3 4 6 4 3 2 4 2 6 6 3 4 2 2 7 9 11 12 13 6
17 16 15 15 16 16 15 14 17 14 16 19 18 17 15 12 8 4 1 1 3 2 2 4 4 5 9 7 4 3 6 3 3 3 5 5 7 4 3 5 7 7 4 5 3 6 3 6 6 7 9 15 15 13
16 15 15 15 17 15 15 15 18 14 18 20 20 17 13 10 3 3 2 3 3 3 3 3 4 4 7 4 3 4 3 3 3 3 2 4 3 2 4 4 5 7 8 6 9 6 6 8 9 10 10 11 11 7
14 14 15 16 16 14 14 18 16 22 24 24 22 17 10 3 3 4 4 5 2 1 3 3 3 2 4 3 2 3 3 3 4 4 6 3 4 5 7 10 8 9 7 7 8 6 7 8 10 9 10 10 10 7
13 13 16 16 14 14 19 20 26 27 30 29 18 4 2 5 8 12 3 2 1 2 3 3 4 4 3 2 1 3 2 4 3 6 3 7 9 11 10 7 6 8 10 2 4 6 7 9 10 12 11 7 7 5
13 15 15 14 16 17 23 28 32 35 32 6 3 2 9 12 4 3 3 3 3 3 4 4 7 5 2 2 2 0 2 3 3 4 6 4 4 9 13 12 7 6 5 2 4 6 8 9 8 10 9 7 6 7
14 14 14 16 15 26 32 38 41 17 12 9 11 12 6 2 2 3 3 4 5 4 6 4 5 5 1 2 2 3 2 1 5 5 3 4 3 4 11 5 6 5 4 5 7 8 9 11 11 9 8 6 4 6
14 16 14 16 28 34 40 45 17 16 22 11 3 3 3 4 2 5 6 4 4 3 4 4 1 3 2 1 1 2 2 4 3 3 4 1 6 5 6 6 7 8 9 9 11 14 13 16 20 14 7 5 19 18
15 16 21 25 32 38 45 22 17 14 2 2 4 3 5 5 5 5 6 2 3 2 4 4 2 4 0 4 3 4 4 2 3 4 3 3 6 5 6 5 6 6 8 9 12 12 11 15 9 11 8 19 20 15
16 21 27 31 36 43 24 14 16 4 1 2 4 4 7 7 4 3 1 3 2 3 4 3 3 2 2 2 2 3 4 4 5 1 3 5 6 6 6 6 5 5 6 8 9 10 11 6 5 7 19 25 27 18
30 28 21 34 42 23 10 14 10 3 3 2 4 3 3 2 4 5 2 2 4 4 3 3 3 2 2 2 4 7 5 2 3 2 4 4 6 5 3 1 5 7 7 7 9 11 11 8 6 9 14 18 21 20
14 8 30 38 32 12 10 4 1 3 3 3 2 0 1 0 1 2 2 1 4 4 2 3 6 5 3 3 4 3 3 4 3 3 3 6 1 2 3 4 5 8 7 9 8 14 11 15 11 4 5 6 13 13
19 26 29 34 22 8 3 1 1 2 3 3 2 2 2 3 4 4 3 3 2 3 5 4 1 4 3 3 2 2 2 2 4 3 4 7 2 3 3 3 7 10 11 10 13 11 8 14 3 6 9 10 8 1
28 26 25 24 17 1 0 1 1 3 3 3 2 2 1 1 3 1 1 2 4 2 1 3 4 4 3 3 2 2 1 1 2 2 2 5 6 2 3 2 6 8 11 11 9 9 8 13 11 16 16 19 5 8
27 23 21 18 5 2 2 2 4 4 3 2 2 1 1 2 3 2 2 3 4 2 2 3 3 2 3 3 3 3 1 3 3 4 4 2 3 2 1 3 5 8 10 8 7 7 7 8 12 11 7 13 21 14
16 11 6 3 2 5 2 2 3 3 3 2 2 1 2 1 2 1 2 1 1 2 3 4 5 2 2 1 4 6 3 3 4 4 4 4 4 6 11 6 5 7 6 5 2 3 7 4 9 10 18 14 7 2
5 4 0 2 3 2 3 5 3 3 2 1 2 2 2 2 3 3 5 3 2 2 3 6 7 7 7 6 3 6 9 9 10 10 11 10 3 4 3 4 3 2 4 4 5 5 5 7 11 14 13 13 9 8
6 1 2 2 2 2 5 5 3 2 1 2 3 2 3 3 4 6 2 4 3 4 8 8 12 16 11 15 14 13 14 12 5 7 10 9 8 7 3 6 4 3 2 2 1 2 1 2 4 5 4 8 14 11
3 2 3 3 6 3 2 2 1 2 2 2 2 2 2 2 3 2 2 2 3 3 5 8 8 6 6 6 4 3 5 7 8 11 12 6 3 2 3 7 11 10 8 6 5 8 12 4 2 7 4 3 7 5
2 3 3 4 3 2 2 2 3 3 2 2 1 1 2 2 2 3 3 3 4 4 5 5 4 4 3 3 4 8 8 7 4 4 9 3 12 10 10 11 15 18 19 17 13 7 7 12 10 12 9 11 13 10
2 1 2 3 1 2 2 1 1 1 1 1 1 1 1 1 2 3 5 6 4 6 8 7 6 5 7 7 4 6 14 14 5 4 10 7 9 10 6 5 5 11 21 19 13 13 14 19 18 20 7 3 7 7
2 2 2 1 2 1 1 1 2 2 2 2 2 2 2 4 4 4 4 3 2 8 16 17 13 8 7 10 11 15 18 19 15 11 9 11 16 16 18 12 6 6 16 20 20 24 20 19 17 18 17 17 9 8
2 2 4 4 1 1 1 1 2 4 3 3 3 5 4 3 2 3 4 6 12 16 15 8 4 3 9 10 4 3 7 11 15 15 16 12 8 6 4 3 6 6 3 4 8 14 21 24 22 23 18 12 16 8
3 2 3 5 3 3 4 3 3 2 1 1 3 3 4 3 2 3 9 10 10 11 9 9 14 7 2 6 13 17 17 15 12 11 13 7 4 5 2 5 13 16 19 20 16 12 9 7 5 6 5 8 13 11
1 2 1 3 4 6 5 3 2 2 2 2 2 1 2 2 8 6 15 12 15 12 12 7 9 11 7 9 7 13 22 23 22 15 3 1 4 16 19 5 8 13 17 17 15 16 13 15 9 10 9 3 8 10
5 3 2 4 3 2 2 3 9 5 2 2 3 8 9 7 16 21 24 23 22 19 18 17 19 22 15 13 12 11 9 17 19 20 16 14 17 21 20 19 20 20 21 18 1 4 5 10 11 9 11 12 12 12
2 2 3 3 4 2 2 1 1 1 1 1 2 7 8 8 10 7 20 21 20 18 22 20 17 17 22 20 21 13 14 12 15 17 21 22 23 21 20 21 21 21 19 18 18 17 12 16 16 18 17 15 13 12
3 6 5 4 2 2 2 2 2 3 5 6 5 9 8 8 11 7 20 22 22 21 20 21 21 20 22 23 24 21 12 9 9 12 16 18 17 19 17 20 21 19 22 23 22 19 20 19 20 21 20 19 18 17
Wind_Direction
254 255 255 252 250 248 248 251 238 243 236 233 234 235 247 267 290 322 278 262 329 297 300 308 334 339 339 358 352 329 326 6 29 59 289 264 284 264 292 271 146 153 146 235 278 278 328 257 334 84 145 219 180 97
249 250 252 249 248 244 242 245 234 237 229 226 224 223 230 234 240 287 282 358 320 260 282 308 290 276 280 296 311 322 290 321 342 12 3 327 309 325 311 335 345 351 166 180 113 207 153 353 93 141 175 200 216 184
244 246 246 250 245 240 240 240 232 234 225 220 216 213 218 213 213 222 290 338 325 261 275 246 246 259 239 240 244 276 334 4 346 332 315 283 304 8 316 336 19 29 27 65 76 142 131 216 145 166 209 213 235 239
241 244 240 244 240 234 235 233 226 230 220 217 210 207 205 197 201 217 240 330 328 295 277 344 15 191 185 257 220 241 281 318 309 323 319 295 330 356 325 312 348 229 45 312 167 121 125 164 173 207 260 311 303 321
235 236 230 237 233 227 228 226 220 224 218 209 203 200 191 188 189 221 239 274 292 318 317 304 310 285 217 202 245 245 239 259 297 313 282 274 294 318 291 356 310 321 316 77 193 137 125 207 247 270 283 263 274 287
228 219 229 228 223 219 220 222 215 218 212 200 196 189 180 171 170 192 222 176 273 161 279 293 343 289 252 67 343 239 223 253 238 229 271 270 296 307 291 295 278 49 32 49 155 193 261 222 228 245 246 265 269 270
209 216 222 219 214 212 216 218 209 211 202 190 181 170 165 169 173 270 50 290 85 68 265 294 273 191 229 182 199 238 221 225 207 231 234 265 285 332 271 258 273 300 329 10 334 139 194 221 248 246 218 248 272 285
208 215 214 212 207 210 214 211 198 203 188 174 158 156 159 165 209 256 222 132 132 279 259 275 262 196 177 210 230 174 216 187 223 225 291 218 237 237 254 206 255 298 308 310 281 247 228 231 245 252 262 264 276 275
204 211 205 198 201 208 205 186 191 183 161 146 142 139 128 167 238 140 157 144 79 342 289 258 282 14 315 246 265 163 203 231 206 212 225 234 232 219 212 211 230 251 239 246 285 280 318 317 302 295 256 257 267 274
198 192 190 193 198 191 181 174 175 157 143 140 139 153 150 172 130 122 114 143 218 212 231 257 298 277 334 291 16 334 197 214 270 215 180 222 240 251 266 269 231 234 227 259 347 326 311 291 280 286 289 260 245 252
184 185 192 194 188 178 171 169 151 143 142 154 145 89 123 133 180 219 189 195 161 234 218 246 245 270 200 307 355 360 307 306 249 237 178 213 231 243 240 233 261 206 125 235 270 274 275 278 269 282 294 313 328 321
185 187 185 183 191 163 166 150 148 142 175 159 113 108 127 190 209 209 205 197 200 242 174 233 215 208 334 14 324 321 271 262 255 312 218 217 129 56 37 77 88 54 21 312 298 287 281 280 279 279 275 285 321 29
163 162 166 164 161 161 154 152 144 133 130 123 83 129 161 164 159 206 189 193 210 201 180 196 240 152 89 330 346 312 277 254 275 267 297 18 95 63 47 38 21 7 6 346 319 297 295 280 256 251 258 280 97 86
155 154 152 160 159 157 153 149 152 154 126 166 153 139 203 178 222 213 230 159 203 166 109 112 63 16 152 177 137 252 231 195 263 192 230 231 125 99 63 34 32 353 324 298 279 285 289 297 254 246 228 115 108 106
142 149 157 156 154 150 146 150 165 148 272 222 207 183 199 229 276 262 255 147 101 79 96 82 42 31 340 35 244 293 264 263 207 170 163 118 73 58 50 34 342 305 297 296 326 307 317 331 355 100 115 114 118 127
130 130 136 153 148 142 117 150 162 342 262 242 229 267 266 14 318 315 21 346 79 104 76 47 112 78 300 204 241 214 247 231 19 37 69 62 74 55 20 352 335 304 307 319 320 322 342 354 49 111 112 117 128 132
108 108 155 151 149 113 111 113 258 249 286 248 259 360 316 335 237 282 264 342 111 119 145 161 178 209 159 238 220 223 278 345 107 72 38 318 290 79 356 26 332 309 313 313 332 343 10 17 349 167 107 120 139 145
108 137 149 159 147 84 72 55 293 287 278 257 276 343 264 194 183 250 253 126 116 188 148 207 245 205 233 266 23 194 146 205 328 231 180 232 140 47 45 10 307 309 309 338 355 4 51 111 239 317 106 140 157 240
138 139 148 160 173 334 25 272 199 293 274 308 285 220 234 290 315 195 170 165 159 144 207 207 225 230 202 184 250 316 305 180 230 275 143 132 136 185 289 305 302 324 337 349 15 10 21 77 68 36 3 332 207 194
134 139 148 159 192 252 244 218 208 251 270 311 286 339 360 242 242 276 207 196 157 186 236 234 250 49 187 238 252 330 142 191 281 326 317 63 56 63 215 285 334 327 319 14 29 30 25 94 66 61 50 255 257 183
122 128 135 177 271 245 271 281 235 244 283 280 301 344 311 316 327 8 21 36 156 233 241 245 279 316 6 9 313 324 302 275 283 280 286 306 341 341 314 329 5 346 28 7 123 39 58 65 81 113 144 159 114 346
154 142 277 247 262 257 253 241 251 295 281 287 360 334 353 35 26 30 309 232 251 355 18 338 325 322 322 314 356 358 326 314 306 290 284 276 267 265 283 334 7 328 63 72 61 45 61 52 54 83 120 148 154 185
141 226 254 249 255 247 261 281 248 235 308 20 349 35 32 17 360 319 291 347 26 6 340 329 306 293 277 278 286 292 285 278 275 275 278 251 266 294 297 307 270 221 197 125 44 52 62 75 115 117 150 159 150 152
211 237 225 223 198 256 246 240 255 24 54 41 26 26 26 334 320 16 312 301 295 301 320 326 327 319 293 261 265 305 329 320 296 281 274 291 301 35 26 69 56 52 33 341 308 307 298 254 258 239 203 234 141 138
241 270 137 280 275 230 226 26 42 39 83 39 33 50 360 334 5 4 315 299 311 313 322 315 326 336 348 353 3 356 340 317 297 290 307 270 107 101 86 71 53 54 42 28 357 315 12 9 348 312 269 174 165 178
301 272 75 330 18 16 49 89 74 77 102 166 238 161 192 298 35 26 329 332 321 310 337 7 10 8 33 19 360 5 353 12 125 78 31 96 120 111 92 76 53 32 42 32 23 41 20 22 359 354 342 148 178 188
286 311 311 244 220 250 120 192 174 212 226 204 186 145 156 64 8 322 290 291 300 318 334 343 348 348 351 15 31 37 40 47 49 57 82 100 109 104 101 102 102 53 33 15 21 29 360 4 351 343 336 317 318 8
311 285 352 344 38 298 238 161 48 33 37 13 50 38 51 53 244 237 223 261 300 340 2 37 18 10 357 12 24 30 50 70 75 71 69 68 90 108 102 166 126 154 356 249 226 232 243 247 258 243 227 247 271 289
352 345 332 360 356 32 33 40 51 48 52 62 129 126 159 228 229 235 261 222 228 249 312 40 77 97 29 46 73 51 44 47 52 32 40 33 19 30 278 250 241 257 277 289 285 291 275 277 346 8 29 94 142 156
18 271 36 353 17 46 21 97 63 95 48 49 95 111 174 215 12 338 356 94 176 213 228 198 171 159 183 222 250 47 52 50 43 30 76 352 347 356 354 318 317 309 321 319 314 343 337 351 13 7 5 45 32 21
178 199 89 45 78 44 57 104 132 146 180 264 138 91 76 53 45 37 31 31 38 45 54 47 38 29 42 63 57 61 54 47 44 43 47 36 20 18 27 27 19 16 17 12 62 153 15 42 40 51 66 54 39 37
95 158 132 121 95 79 127 81 106 180 240 218 180 108 96 84 79 59 41 35 33 37 32 40 46 36 25 25 25 58 70 68 52 49 48 43 36 33 25 24 24 16 12 6 1 15 60 53 47 47 35 33 15 7
72 96 100 106 109 99 31 342 77 50 40 58 63 97 90 72 65 65 63 46 35 29 39 35 30 32 32 27 26 30 40 46 52 52 50 40 27 21 25 29 26 24 26 25 32 45 34 37 48 38 28 20 13 14